Location: Laas
(43.4693°N, 0.3073°E)
Time: 15:41:53
(UTC+00:00)

YAOGAN 1 - Pass Details

Date: 25 October 2020
Orbit: 618 x 620 km, 97.9° (Epoch: 23 November)

Event Time Altitude Azimuth Distance (km) Brightness Sun altitude
Rises 17:42:23 0° 134° (SE) 2,887 5.6 -8.5°
Reaches altitude 10° 17:44:52 10° 121° (ESE) 1,986 4.7 -8.9°
Maximum altitude 17:48:22 24° 67° (ENE) 1,280 3.6 -9.5°
Drops below altitude 10° 17:51:52 10° 13° (NNE) 1,997 5.0 -10.2°
Sets 17:54:22 0° 360° (N) 2,908 5.9 -10.6°
